Poplar Bluff, MO

11:11 AM CDT on September 17, 2019 (GMT -0500)
Poplar Bluff Municipal

Weather History for KPOF - May, 2019

Change the Weather History Date:

Wednesday, May 15, 2019

  Actual Average Record
Temperature  
Mean Temperature 70 °F -  
Max Temperature 80 °F 79 °F 94 °F (1944)
Min Temperature 61 °F 53 °F 39 °F (1926)
Cooling Degree Days 5    
Growing Degree Days 20 (Base 50)    
Moisture  
Dew Point 62 °F    
Average Humidity 79    
Maximum Humidity 93    
Minimum Humidity 66    
Precipitation  
Precipitation 0.00 in - - ()
Sea Level Pressure  
Sea Level Pressure 29.94 in    
Wind  
Wind Speed 4 mph (SE)    
Max Wind Speed 8 mph    
Max Gust Speed -    
Visibility 10 miles    
Events      
Averages and records for this station are not official NWS values.
T = Trace of Precipitation, MM = Missing Value Source: NWS Daily Summary

Daily Weather History Graph

Daily Weather History Graph

Search for Another Location

Airport or City:

Astronomy

May. 15, 2019 Rise Set
Actual Time 5:53 AM CDT 8:01 PM CDT
Civil Twilight 5:25 AM CDT 8:30 PM CDT
Nautical Twilight 4:49 AM CDT 9:06 PM CDT
Astronomical Twilight 4:11 AM CDT 9:44 PM CDT
Moon 4:39 PM CDT (5/15) 4:11 AM CDT (5/15)
Length of Visible Light 15h 05m
Length of Day
14h 07m
Waxing Gibbous, 87% of the Moon is Illuminated
May 15
Waxing Gibbous
May 18
Full
May 26
Last Quarter
Jun 3
New
Jun 10
First Quarter

Hourly Weather History & Observations

Time (CDT) Temp. Dew Point Humidity Pressure Visibility Wind Dir Wind Speed Gust Speed Precip Events Conditions
12:53 AM 61.0 °F 55.9 °F 83% 29.98 in 10.0 mi Calm Calm - N/A   Mostly Cloudy
1:53 AM 62.1 °F 55.0 °F 78% 29.96 in 10.0 mi South 5.8 mph - N/A   Mostly Cloudy
2:53 AM 62.1 °F 55.0 °F 78% 29.94 in 10.0 mi South 4.6 mph - N/A   Overcast
3:53 AM 62.1 °F 54.0 °F 75% 29.93 in 10.0 mi SSW 4.6 mph - N/A   Scattered Clouds
4:53 AM 62.1 °F 55.0 °F 78% 29.92 in 10.0 mi SSW 4.6 mph - N/A   Mostly Cloudy
5:53 AM 61.0 °F 55.9 °F 83% 29.92 in 10.0 mi SSW 3.5 mph - N/A   Partly Cloudy
6:53 AM 61.0 °F 57.0 °F 87% 29.94 in 10.0 mi South 3.5 mph - N/A   Overcast
7:53 AM 63.0 °F 57.9 °F 84% 29.95 in 10.0 mi ENE 5.8 mph - N/A   Overcast
8:53 AM 63.0 °F 59.0 °F 87% 29.97 in 10.0 mi East 6.9 mph - N/A   Mostly Cloudy
9:53 AM 66.9 °F 61.0 °F 81% 29.96 in 10.0 mi SE 5.8 mph - N/A   Clear
10:53 AM 70.0 °F 63.0 °F 78% 29.96 in 10.0 mi North - - N/A   Scattered Clouds
11:53 AM 72.0 °F 64.0 °F 76% 29.96 in 10.0 mi Variable 5.8 mph - N/A   Clear
12:53 PM 73.9 °F 64.0 °F 71% 29.95 in 10.0 mi SE 4.6 mph - N/A   Clear
1:53 PM 77.0 °F 66.9 °F 71% 29.93 in 10.0 mi SE 8.1 mph - N/A   Clear
2:53 PM 75.0 °F 66.9 °F 76% 29.93 in 10.0 mi SE 5.8 mph - N/A   Clear
3:53 PM 78.1 °F 66.9 °F 68% 29.91 in 10.0 mi SE 4.6 mph - N/A   Clear
4:53 PM 79.0 °F 66.9 °F 66% 29.91 in 10.0 mi Variable 4.6 mph - N/A   Clear
5:53 PM 79.0 °F 68.0 °F 69% 29.90 in 10.0 mi SE 6.9 mph - N/A   Clear
6:53 PM 78.1 °F 68.0 °F 71% 29.89 in 10.0 mi SE 3.5 mph - N/A   Clear
7:53 PM 75.0 °F 68.0 °F 79% 29.90 in 10.0 mi Calm Calm - N/A   Clear
8:53 PM 71.1 °F 68.0 °F 90% 29.93 in 10.0 mi SE 4.6 mph - N/A   Clear
9:53 PM 71.1 °F 66.9 °F 87% 29.95 in 10.0 mi SE 5.8 mph - N/A   Partly Cloudy
10:53 PM 69.1 °F 66.0 °F 90% 29.94 in 9.0 mi East 4.6 mph - N/A   Partly Cloudy
11:53 PM 68.0 °F 66.0 °F 93% 29.93 in 8.0 mi ENE 3.5 mph - N/A   Clear